Погода в Октябрьском

Россия / Волгоградская область     47°58′07″N   43°39′12″E
темп.,
°C
ветер,
м/с
пор.,
м/с
влажн.,
%
обл.,
%
осадки,
мм/ч
давл.,
гПа
погр.,
м
13 апреля, вт
вт1300:00+13в51457100 0.0 1024279
03:00+11в51353100 0.0 1024266
06:00+10в51153100 0.0 1024240
09:00+15вюв710410 0.0 1024454
12:00+20вюв912295 0.0 10231278
15:00+22вюв9112539 0.0 10222235
18:00+18в71331100 0.0 1021351
21:00+15вюв71534100 0.0 1022321
14 апреля, ср
ср1400:00+12вюв41044100 0.0 1021178
03:00+10в4649100 0.0 102176
06:00+9всв4105363 0.0 1019182
09:00+16в693830 0.0 1018459
12:00+19в5731100 0.0 10171020
15:00+21юв5830100 0.0 10151834
18:00+18юз354687 0.0 1015118
21:00+15юв1258100 0.0 101622
15 апреля, чт
чт1500:00+13в2258100 0.0 101523
03:00+12юв236192 0.0 101523
06:00+12юв3365100 0.0 101544
09:00+15ю3354100 0.0 1015458
12:00+19ю4545100 0.0 10141625
15:00+18зюз3346100 0.0 10141702
18:00+16з345796 0.1 1014140
21:00+13з226717 0.1 101420
16 апреля, пт
пт1600:00+12з47735 0.0 1014126
03:00+11з47695 0.0 1014114
06:00+10з357785 0.0 1015103
09:00+15з4560100 0.0 1016540
12:00+18з454824 0.0 10151294
15:00+19з553626 0.0 10151919
18:00+17з3549100 0.0 1016125
21:00+13зсз1158100 0.0 101611
17 апреля, сб
сб1700:00+11зюз5884100 0.0 1017251
03:00+11зюз129186 1.1 1017134
06:00+9з3693100 0.0 1018306
09:00+11зюз6775100 0.0 1019550
12:00+11зюз5779100 0.7 1019606
15:00+12зюз366589 2.1 1020911
18:00+12з586651 0.1 1020412
21:00+9зсз33795 0.1 102040